Location: Newark
(37.9717°N, 99.9089°W)
Time: 10:37:47
(UTC+00:00)

ISS - Pass Details

Date: 30 July 2019
Orbit: 410 x 420 km, 51.6° (Epoch: 20 August)

Event Time Altitude Azimuth Distance (km) Brightness Sun altitude
Rises 05:14:22 0° 311° (NW) 2,366 1.0 -29.5°
Reaches altitude 10° 05:16:29 10° 313° (NW) 1,498 -0.2 -29.7°
Enters shadow 05:17:02 14° 314° (NW) 1,272 -0.6 -29.7°
